Location: Buch
(49.7331°N, 12.1098°E)
Time: 03:54:06
(UTC+00:00)

Cosmos 1607 - Pass Details

Date: 12 May 2021
Orbit: 909 x 993 km, 65.0° (Epoch: 23 June)

Event Time Altitude Azimuth Distance (km) Brightness Sun altitude
Exits shadow 22:43:52 41° 181° (S) 1,394 4.3 -21.7°
Maximum altitude 22:45:59 61° 122° (ESE) 1,115 4.1 -21.7°
Drops below altitude 10° 22:52:22 10° 44° (NE) 2,765 6.9 -21.8°
Sets 22:54:59 0° 41° (NE) 3,716 7.7 -21.8°
